Temp
-10 -10 -11 -11 -11 -11 -10 -10 -10 -10 -10 -11 -10 -10 -10 -10 -10 -10 -10 -10 -10 -10 -10 -10 -10 -10 -10 -10 -10 -10 -10 -10 -10 -10 -10 -10 -10 -10 -10 -10 -10 -10 -10 -10 -10 -10 -10 -10 -11 -11 -11 -11
-11 -11 -11 -11 -11 -11 -11 -11 -11 -11 -11 -11 -11 -11 -11 -10 -10 -10 -10 -10 -10 -10 -10 -10 -10 -10 -10 -10 -10 -10 -10 -10 -10 -10 -10 -10 -10 -10 -10 -10 -10 -10 -10 -10 -10 -11 -11 -11 -11 -11 -11 -11
-11 -11 -11 -11 -11 -11 -11 -11 -11 -11 -11 -11 -11 -11 -11 -11 -11 -11 -11 -10 -10 -10 -10 -10 -10 -10 -10 -10 -10 -10 -10 -10 -10 -10 -10 -10 -10 -10 -10 -10 -10 -11 -11 -11 -11 -11 -11 -11 -11 -11 -11 -11
-11 -11 -11 -11 -11 -11 -11 -11 -11 -11 -11 -11 -11 -11 -11 -11 -11 -11 -11 -11 -10 -10 -10 -10 -10 -10 -10 -10 -10 -10 -10 -10 -10 -10 -10 -10 -10 -10 -11 -11 -11 -11 -11 -11 -11 -11 -11 -11 -11 -11 -11 -11
-11 -11 -11 -11 -11 -11 -11 -11 -11 -11 -11 -11 -11 -11 -11 -11 -11 -11 -11 -11 -10 -10 -10 -10 -10 -10 -10 -10 -10 -10 -10 -10 -10 -10 -10 -10 -10 -11 -11 -11 -11 -11 -11 -11 -11 -11 -11 -11 -11 -11 -11 -11
-11 -11 -11 -11 -11 -11 -11 -11 -11 -11 -11 -11 -11 -11 -11 -11 -11 -11 -11 -11 -10 -10 -10 -10 -10 -10 -10 -11 -11 -11 -10 -10 -10 -10 -10 -10 -10 -10 -11 -11 -11 -11 -11 -11 -11 -11 -11 -11 -11 -11 -11 -11
-11 -11 -11 -11 -11 -11 -11 -11 -11 -11 -11 -11 -11 -11 -11 -11 -11 -11 -11 -11 -11 -11 -11 -11 -11 -11 -11 -11 -11 -11 -10 -10 -10 -10 -10 -10 -11 -11 -11 -11 -11 -11 -11 -11 -11 -12 -12 -12 -12 -12 -12 -12
-11 -11 -11 -11 -11 -11 -11 -11 -11 -11 -11 -11 -11 -11 -11 -11 -11 -11 -11 -11 -11 -11 -11 -11 -11 -11 -11 -11 -10 -10 -10 -10 -10 -11 -11 -11 -11 -11 -11 -11 -11 -11 -12 -12 -12 -12 -12 -12 -12 -12 -12 -12
-11 -11 -11 -11 -11 -11 -11 -11 -11 -11 -11 -11 -11 -11 -11 -11 -11 -11 -11 -11 -11 -11 -11 -11 -11 -11 -10 -10 -10 -10 -10 -11 -11 -11 -11 -12 -12 -12 -12 -12 -12 -12 -12 -12 -12 -12 -12 -12 -12 -12 -12 -12
-12 -12 -12 -12 -11 -11 -11 -11 -12 -12 -12 -11 -11 -11 -11 -11 -11 -11 -11 -11 -11 -11 -11 -11 -10 -10 -10 -10 -10 -11 -11 -11 -11 -12 -12 -12 -12 -12 -12 -12 -12 -12 -12 -12 -12 -12 -12 -12 -12 -12 -12 -12
-12 -12 -12 -12 -12 -12 -12 -12 -12 -12 -12 -12 -11 -11 -11 -11 -11 -11 -11 -11 -11 -11 -10 -10 -10 -10 -10 -11 -11 -11 -11 -12 -12 -12 -12 -12 -12 -12 -12 -12 -12 -12 -12 -12 -12 -12 -12 -12 -12 -12 -12 -12
-12 -12 -12 -12 -12 -12 -12 -12 -12 -12 -12 -11 -11 -11 -11 -11 -11 -11 -11 -11 -10 -10 -10 -10 -11 -11 -11 -11 -11 -12 -12 -12 -12 -12 -12 -13 -13 -13 -12 -12 -12 -12 -12 -12 -12 -12 -12 -12 -12 -12 -12 -12
-12 -12 -12 -12 -12 -12 -12 -12 -12 -12 -12 -11 -11 -11 -11 -11 -11 -11 -11 -11 -11 -11 -11 -11 -11 -11 -11 -11 -12 -12 -12 -12 -13 -13 -13 -13 -13 -13 -13 -13 -13 -13 -12 -12 -12 -12 -12 -12 -12 -12 -12 -12
-12 -12 -12 -12 -12 -12 -12 -12 -12 -12 -11 -11 -11 -11 -11 -11 -11 -11 -11 -11 -11 -11 -11 -11 -11 -12 -12 -12 -12 -12 -12 -13 -13 -13 -13 -12 -12 -12 -12 -12 -12 -12 -12 -12 -12 -12 -12 -12 -12 -12 -12 -13
-12 -12 -12 -12 -12 -12 -12 -12 -12 -12 -11 -11 -11 -11 -11 -11 -11 -11 -11 -11 -11 -11 -12 -12 -12 -12 -12 -12 -12 -13 -13 -13 -12 -12 -12 -12 -12 -12 -12 -12 -13 -13 -13 -12 -13 -13 -13 -13 -13 -13 -13 -13
-12 -12 -12 -12 -12 -12 -12 -12 -12 -11 -11 -11 -11 -11 -11 -11 -11 -11 -11 -11 -12 -12 -12 -12 -12 -12 -13 -13 -13 -13 -13 -12 -12 -12 -12 -12 -12 -13 -13 -13 -13 -13 -13 -13 -13 -13 -13 -13 -13 -13 -13 -13
-12 -12 -12 -12 -12 -12 -12 -12 -11 -11 -11 -11 -11 -11 -11 -12 -12 -12 -12 -12 -12 -12 -12 -12 -13 -13 -13 -13 -13 -12 -12 -12 -13 -13 -13 -13 -13 -13 -13 -13 -13 -13 -13 -13 -13 -13 -13 -13 -13 -13 -13 -13
-12 -12 -12 -12 -12 -12 -12 -12 -12 -12 -12 -11 -12 -12 -12 -12 -12 -12 -12 -12 -12 -12 -12 -13 -13 -13 -13 -13 -13 -12 -13 -13 -13 -13 -13 -13 -13 -13 -13 -13 -13 -13 -13 -13 -13 -13 -13 -13 -13 -13 -14 -14
-12 -12 -12 -12 -12 -12 -12 -12 -12 -12 -12 -12 -12 -12 -12 -12 -12 -12 -12 -12 -12 -12 -13 -13 -13 -13 -13 -13 -13 -13 -13 -13 -13 -13 -13 -13 -13 -13 -13 -13 -13 -13 -13 -13 -13 -13 -13 -13 -13 -14 -14 -14
-12 -12 -12 -12 -12 -12 -12 -12 -12 -12 -12 -12 -12 -12 -12 -12 -12 -12 -12 -12 -12 -13 -13 -13 -13 -13 -13 -13 -13 -13 -13 -13 -13 -13 -13 -13 -13 -13 -13 -13 -13 -13 -13 -13 -13 -13 -13 -14 -14 -14 -14 -14
-12 -12 -12 -12 -12 -12 -12 -12 -12 -12 -12 -12 -12 -12 -12 -12 -12 -12 -12 -12 -13 -13 -13 -13 -13 -13 -13 -13 -13 -13 -13 -13 -13 -13 -13 -13 -13 -13 -13 -13 -13 -13 -13 -13 -13 -14 -14 -14 -14 -14 -14 -15
-12 -12 -12 -12 -12 -12 -12 -12 -12 -12 -12 -12 -12 -12 -12 -12 -12 -13 -13 -13 -13 -13 -13 -13 -13 -13 -13 -13 -13 -13 -13 -13 -13 -13 -13 -13 -13 -13 -13 -13 -14 -14 -14 -14 -14 -14 -14 -14 -15 -15 -15 -16
-12 -12 -12 -12 -12 -12 -12 -12 -12 -12 -12 -12 -12 -12 -12 -12 -13 -13 -13 -13 -13 -13 -13 -13 -13 -13 -13 -13 -13 -14 -14 -13 -13 -13 -13 -13 -13 -14 -14 -14 -14 -14 -14 -14 -14 -15 -15 -15 -16 -16 -16 -16
-12 -12 -12 -12 -12 -12 -12 -12 -12 -12 -12 -12 -12 -12 -13 -13 -13 -13 -13 -13 -13 -13 -13 -13 -13 -13 -13 -13 -14 -14 -14 -14 -14 -14 -14 -14 -14 -14 -14 -14 -14 -14 -14 -15 -15 -16 -16 -16 -17 -17 -17 -17
-12 -12 -12 -12 -12 -12 -12 -12 -12 -12 -12 -12 -13 -13 -13 -13 -13 -13 -13 -13 -13 -13 -13 -14 -13 -13 -13 -14 -14 -14 -14 -14 -14 -14 -14 -14 -14 -14 -14 -14 -14 -14 -15 -15 -16 -17 -17 -17 -18 -18 -19 -20
-13 -13 -13 -12 -12 -12 -12 -12 -12 -12 -13 -13 -13 -13 -13 -13 -13 -13 -14 -14 -14 -14 -14 -14 -13 -14 -14 -14 -14 -14 -14 -14 -14 -14 -14 -14 -14 -14 -14 -14 -14 -15 -15 -16 -16 -17 -17 -18 -19 -20 -22 -23
-13 -13 -13 -13 -13 -12 -12 -12 -13 -13 -13 -13 -13 -13 -13 -13 -14 -14 -14 -14 -14 -14 -14 -14 -14 -14 -14 -14 -14 -14 -14 -14 -14 -14 -14 -14 -14 -14 -14 -14 -15 -15 -16 -16 -16 -17 -17 -18 -19 -21 -23 -24
-13 -13 -13 -13 -13 -13 -13 -13 -13 -13 -13 -13 -13 -13 -14 -14 -14 -14 -14 -14 -14 -14 -14 -14 -14 -14 -14 -14 -14 -14 -14 -14 -14 -14 -14 -14 -14 -14 -15 -15 -15 -16 -16 -16 -17 -17 -18 -19 -20 -22 -23 -25
-13 -13 -13 -13 -13 -13 -13 -13 -13 -13 -13 -13 -13 -14 -14 -14 -14 -14 -14 -14 -14 -14 -14 -14 -14 -15 -15 -15 -15 -14 -14 -14 -14 -14 -14 -15 -15 -15 -15 -16 -16 -16 -17 -17 -17 -18 -19 -20 -21 -22 -24 -25
-13 -13 -13 -13 -13 -13 -13 -13 -13 -13 -13 -13 -14 -14 -14 -14 -14 -14 -14 -14 -14 -14 -14 -15 -15 -15 -15 -15 -15 -15 -15 -15 -15 -15 -15 -15 -15 -15 -16 -16 -17 -17 -17 -18 -18 -19 -20 -22 -23 -24 -25 -26
-14 -14 -14 -13 -13 -13 -13 -13 -13 -13 -13 -14 -14 -14 -14 -14 -14 -14 -14 -14 -14 -14 -15 -15 -15 -15 -15 -15 -15 -15 -15 -15 -15 -15 -15 -15 -16 -16 -17 -17 -17 -18 -18 -19 -20 -21 -22 -24 -24 -25 -26 -27
Height
5792 5791 5790 5789 5788 5787 5786 5785 5784 5783 5782 5781 5780 5778 5777 5776 5775 5774 5773 5772 5770 5768 5767 5765 5764 5762 5761 5759 5758 5756 5755 5753 5751 5750 5748 5746 5745 5743 5741 5739 5736 5734 5732 5731 5729 5727 5725 5723 5721 5719 5717 5716
5790 5789 5788 5787 5786 5785 5784 5783 5782 5780 5779 5778 5777 5776 5775 5774 5773 5772 5770 5769 5767 5765 5764 5762 5761 5759 5758 5756 5755 5753 5751 5750 5748 5746 5744 5742 5740 5738 5736 5734 5732 5730 5728 5726 5724 5722 5720 5718 5716 5714 5712 5710
5788 5788 5787 5786 5785 5784 5782 5781 5779 5778 5777 5776 5775 5774 5773 5772 5770 5769 5768 5766 5765 5763 5761 5759 5758 5756 5755 5753 5752 5750 5748 5746 5744 5742 5740 5738 5736 5734 5732 5730 5727 5725 5723 5721 5719 5717 5715 5713 5711 5709 5707 5705
5787 5786 5785 5784 5783 5781 5780 5778 5777 5776 5775 5774 5773 5772 5770 5769 5768 5766 5765 5763 5762 5760 5759 5757 5756 5754 5752 5750 5748 5746 5744 5742 5740 5738 5737 5735 5733 5730 5728 5726 5723 5721 5719 5716 5714 5712 5710 5708 5706 5704 5702 5700
5785 5784 5783 5782 5780 5779 5778 5777 5775 5774 5773 5772 5770 5769 5768 5766 5765 5763 5762 5760 5759 5757 5756 5754 5752 5751 5749 5747 5745 5743 5741 5739 5737 5735 5733 5731 5728 5726 5724 5722 5719 5717 5714 5712 5709 5707 5705 5702 5700 5698 5696 5694
5783 5782 5781 5780 5779 5777 5776 5775 5773 5772 5771 5769 5768 5766 5765 5763 5762 5761 5759 5757 5756 5754 5753 5751 5749 5747 5745 5743 5742 5739 5737 5735 5733 5731 5729 5726 5724 5721 5719 5717 5714 5712 5709 5706 5704 5702 5699 5696 5694 5692 5689 5687
5781 5780 5779 5778 5776 5775 5774 5772 5771 5770 5768 5767 5765 5764 5762 5761 5759 5758 5756 5755 5753 5751 5749 5748 5746 5744 5742 5740 5738 5736 5733 5731 5729 5726 5724 5721 5718 5716 5713 5711 5708 5706 5703 5700 5697 5695 5692 5690 5687 5685 5683 5680
5779 5778 5777 5775 5774 5773 5772 5770 5769 5767 5766 5764 5762 5761 5759 5758 5756 5755 5753 5751 5750 5748 5746 5744 5743 5741 5738 5736 5734 5732 5729 5727 5724 5721 5719 5716 5713 5711 5708 5706 5703 5701 5698 5695 5692 5689 5687 5684 5681 5679 5676 5673
5777 5775 5774 5773 5772 5770 5769 5768 5766 5765 5763 5761 5760 5758 5757 5755 5754 5752 5750 5749 5747 5745 5743 5741 5739 5737 5735 5733 5730 5728 5726 5723 5720 5718 5715 5712 5710 5707 5704 5702 5700 5697 5695 5691 5688 5685 5682 5679 5676 5673 5670 5667
5775 5773 5772 5771 5769 5768 5766 5765 5763 5762 5760 5759 5757 5756 5754 5753 5751 5750 5748 5746 5744 5742 5740 5738 5736 5733 5731 5729 5727 5724 5722 5719 5717 5714 5711 5709 5706 5703 5700 5698 5695 5692 5690 5686 5683 5679 5676 5673 5670 5666 5662 5659
5773 5771 5770 5769 5767 5766 5764 5763 5761 5760 5758 5756 5755 5753 5752 5750 5749 5747 5745 5743 5741 5739 5737 5734 5732 5729 5727 5725 5723 5720 5718 5715 5713 5710 5707 5704 5701 5698 5695 5692 5689 5685 5682 5679 5675 5672 5668 5665 5661 5657 5653 5650
5771 5770 5768 5767 5765 5764 5762 5760 5759 5757 5756 5754 5753 5751 5750 5748 5746 5744 5742 5740 5738 5735 5733 5730 5728 5726 5724 5722 5719 5716 5714 5711 5708 5705 5702 5699 5696 5693 5689 5686 5682 5679 5675 5671 5668 5664 5660 5656 5652 5648 5644 5640
5769 5768 5766 5765 5763 5762 5760 5758 5756 5755 5753 5752 5750 5749 5747 5745 5743 5741 5739 5737 5734 5732 5729 5727 5725 5722 5720 5718 5715 5712 5709 5707 5704 5701 5698 5695 5691 5687 5684 5680 5676 5672 5668 5664 5660 5656 5652 5648 5643 5639 5634 5630
5767 5766 5764 5763 5761 5759 5757 5756 5754 5752 5751 5750 5748 5746 5744 5742 5740 5738 5735 5733 5731 5728 5726 5723 5721 5718 5716 5713 5711 5708 5705 5703 5700 5697 5693 5689 5685 5681 5677 5674 5670 5665 5661 5656 5652 5647 5642 5638 5632 5628 5623 5618
5765 5764 5762 5760 5759 5757 5755 5753 5751 5750 5749 5747 5745 5743 5741 5739 5736 5734 5732 5730 5727 5725 5722 5719 5717 5714 5711 5709 5707 5704 5701 5698 5695 5692 5688 5684 5679 5675 5670 5666 5662 5657 5652 5647 5642 5636 5631 5626 5620 5615 5610 5605
5763 5761 5760 5758 5756 5754 5752 5751 5749 5747 5746 5744 5742 5740 5737 5735 5733 5731 5728 5726 5723 5721 5718 5715 5713 5710 5707 5705 5703 5700 5697 5693 5689 5686 5681 5677 5673 5668 5663 5658 5653 5648 5643 5637 5632 5626 5621 5615 5609 5604 5599 5593
5761 5759 5757 5755 5753 5751 5750 5748 5746 5745 5743 5741 5738 5736 5734 5732 5730 5727 5725 5722 5720 5717 5714 5711 5709 5706 5703 5701 5698 5696 5692 5688 5684 5679 5675 5670 5666 5661 5656 5650 5644 5639 5633 5627 5622 5616 5611 5605 5599 5593 5587 5580
5759 5757 5755 5752 5750 5748 5747 5745 5743 5742 5739 5737 5735 5733 5731 5729 5726 5724 5721 5718 5716 5713 5710 5707 5704 5702 5699 5696 5693 5690 5687 5684 5679 5674 5669 5664 5659 5653 5648 5641 5635 5629 5623 5617 5612 5606 5600 5594 5587 5580 5573 5566
5757 5754 5752 5750 5748 5746 5744 5742 5740 5738 5736 5734 5732 5730 5727 5725 5723 5720 5717 5714 5712 5709 5706 5703 5700 5697 5694 5691 5688 5684 5681 5678 5674 5669 5663 5658 5652 5645 5639 5633 5626 5620 5614 5608 5601 5595 5588 5582 5574 5565 5558 5551
5754 5752 5749 5747 5745 5743 5741 5740 5737 5735 5733 5731 5729 5726 5724 5722 5719 5716 5713 5711 5708 5705 5702 5699 5696 5693 5689 5686 5682 5679 5675 5671 5667 5663 5657 5651 5645 5638 5631 5624 5618 5612 5606 5598 5590 5583 5575 5568 5560 5550 5542 5535
5751 5749 5747 5745 5743 5741 5739 5737 5734 5732 5730 5728 5726 5723 5721 5718 5715 5713 5710 5707 5704 5701 5698 5695 5691 5688 5684 5680 5676 5673 5669 5666 5660 5655 5650 5644 5638 5632 5625 5618 5611 5603 5595 5588 5579 5569 5559 5552 5546 5537 5527 5520
5749 5747 5744 5742 5740 5738 5736 5733 5731 5729 5727 5725 5722 5720 5717 5715 5712 5709 5706 5703 5700 5697 5694 5690 5687 5683 5679 5675 5671 5667 5663 5658 5654 5648 5643 5638 5633 5627 5620 5612 5604 5594 5584 5575 5567 5557 5546 5537 5531 5523 5513 5505
5746 5744 5742 5739 5737 5735 5732 5730 5728 5726 5723 5721 5719 5716 5713 5710 5707 5704 5701 5698 5695 5692 5689 5685 5682 5678 5674 5670 5665 5661 5655 5651 5647 5643 5637 5631 5625 5620 5613 5604 5595 5586 5575 5564 5556 5547 5537 5525 5516 5508 5499 5489
5743 5741 5739 5736 5734 5731 5729 5727 5725 5722 5720 5717 5715 5712 5709 5706 5703 5700 5697 5694 5691 5687 5684 5681 5677 5673 5669 5664 5659 5655 5650 5645 5640 5636 5631 5625 5618 5611 5604 5596 5587 5578 5568 5557 5544 5533 5523 5513 5501 5491 5483 5474
5740 5738 5735 5733 5731 5728 5726 5723 5721 5719 5716 5713 5710 5707 5704 5701 5698 5695 5692 5689 5686 5683 5680 5676 5672 5667 5663 5659 5654 5649 5644 5639 5634 5628 5622 5618 5612 5605 5597 5589 5581 5571 5561 5551 5539 5526 5512 5500 5487 5475 5466 5459
5738 5735 5733 5730 5727 5724 5722 5720 5717 5715 5712 5709 5706 5703 5700 5697 5695 5692 5689 5685 5682 5678 5674 5670 5666 5662 5658 5653 5648 5643 5638 5632 5627 5621 5614 5608 5603 5597 5590 5582 5575 5566 5557 5547 5537 5526 5511 5497 5483 5467 5453 5444
5735 5732 5729 5726 5723 5720 5718 5716 5713 5711 5708 5705 5703 5700 5697 5694 5691 5687 5684 5680 5676 5672 5669 5665 5661 5657 5652 5647 5642 5637 5631 5625 5619 5614 5608 5601 5593 5586 5580 5572 5564 5557 5549 5540 5529 5520 5509 5498 5486 5470 5453 5438
5731 5728 5725 5722 5719 5717 5714 5712 5710 5707 5705 5702 5699 5696 5693 5689 5686 5682 5679 5675 5671 5668 5664 5661 5656 5652 5647 5642 5636 5631 5625 5619 5613 5607 5600 5593 5585 5576 5569 5562 5554 5545 5537 5529 5520 5511 5502 5491 5481 5471 5457 5439
5727 5724 5721 5718 5716 5713 5711 5709 5707 5704 5701 5698 5695 5691 5688 5685 5681 5678 5674 5671 5667 5664 5660 5656 5651 5646 5641 5636 5631 5625 5619 5613 5607 5600 5592 5585 5577 5569 5560 5551 5542 5533 5524 5515 5506 5498 5489 5480 5471 5462 5453 5439
5724 5721 5718 5715 5712 5710 5708 5706 5703 5700 5697 5694 5690 5687 5684 5680 5677 5674 5671 5667 5663 5659 5655 5651 5646 5641 5636 5630 5625 5619 5614 5607 5600 5592 5585 5577 5569 5560 5551 5540 5530 5520 5511 5502 5492 5482 5473 5465 5458 5450 5443 5437
5720 5718 5715 5712 5709 5707 5705 5702 5699 5696 5693 5690 5686 5683 5680 5676 5673 5670 5666 5663 5659 5655 5650 5646 5641 5636 5630 5625 5619 5613 5606 5600 5593 5586 5578 5570 5561 5552 5542 5533 5522 5511 5500 5490 5479 5470 5461 5452 5445 5439 5433 5429
Wind_Speed
27 27 27 27 27 27 27 27 27 27 27 26 26 27 27 28 28 29 30 31 31 32 33 33 34 35 36 37 37 38 39 40 41 41 42 43 44 44 45 46 47 48 48 49 50 50 51 51 52 53 53 54
26 26 26 26 27 27 27 27 27 27 27 27 27 28 28 28 28 29 30 30 31 32 33 34 35 36 36 37 38 39 39 40 41 42 43 43 44 45 46 47 47 48 49 49 50 50 51 51 52 53 53 54
26 26 26 26 26 26 26 26 26 27 27 27 27 27 27 28 28 29 29 30 31 32 33 34 35 36 36 37 38 39 40 40 41 42 43 44 45 45 46 47 48 48 49 50 50 51 51 52 52 53 54 54
24 25 25 25 25 25 25 25 26 26 26 26 26 27 27 27 28 28 29 30 31 31 32 33 34 35 36 37 38 39 40 41 42 42 43 44 44 45 46 46 47 48 49 50 51 51 52 53 53 54 54 55
24 24 24 24 24 24 25 25 25 26 26 26 27 27 27 27 28 29 29 30 31 32 33 34 35 36 37 38 39 39 40 41 41 42 43 43 44 45 45 46 47 48 49 50 51 52 53 54 55 55 56 57
24 24 24 24 24 24 25 25 25 26 26 26 27 27 27 28 28 29 30 31 32 33 34 35 36 37 37 38 39 39 40 41 41 42 43 44 45 46 47 48 49 50 51 53 53 54 55 56 57 58 59 60
24 24 24 25 25 25 25 25 25 26 26 26 27 27 28 29 30 31 31 32 33 34 35 36 36 37 37 38 39 40 40 42 43 44 45 47 48 49 51 52 53 54 55 56 57 57 58 59 60 61 62 63
25 25 25 25 25 25 25 26 26 26 27 27 28 29 30 30 31 32 33 34 34 35 35 36 37 37 38 38 39 40 42 43 45 46 48 49 51 52 53 54 54 55 56 57 58 59 60 61 62 63 64 65
26 26 26 26 26 26 26 27 27 27 28 28 29 30 30 31 32 33 33 34 34 35 35 36 37 37 38 39 41 42 44 45 47 48 49 50 51 52 53 54 55 55 56 57 58 59 60 62 63 64 66 67
26 26 26 27 27 27 27 27 27 28 28 29 29 30 31 31 32 33 33 34 34 35 36 36 37 38 40 41 43 45 46 47 48 49 50 51 52 53 54 55 55 56 57 59 60 61 63 64 66 67 69 70
26 26 26 26 26 26 26 27 27 28 28 29 29 30 31 31 32 32 33 34 35 35 36 37 39 41 42 44 45 46 47 48 49 50 51 52 53 54 56 57 58 60 61 62 64 65 67 68 70 72 73 75
25 25 25 25 25 25 26 26 27 27 28 29 29 30 30 31 31 32 34 35 35 36 38 39 41 43 44 45 46 47 48 49 50 52 53 54 55 56 58 59 61 63 64 66 67 69 70 72 74 76 78 80
25 25 25 25 25 25 25 26 27 27 28 28 28 29 30 31 32 34 35 36 37 38 40 41 43 44 45 46 47 48 49 50 51 53 54 55 57 58 60 62 63 65 67 68 70 72 73 75 77 80 82 84
25 25 25 25 25 25 26 27 27 27 28 28 28 29 31 33 34 35 36 37 38 40 41 43 44 45 46 47 48 49 50 51 52 54 55 57 59 61 63 64 66 67 69 71 73 75 77 80 82 84 87 89
26 25 25 25 26 26 27 27 28 28 28 28 30 31 33 35 36 37 38 39 40 41 43 44 45 46 47 48 49 50 51 53 54 56 58 59 61 64 66 67 69 71 73 75 77 80 82 85 87 89 91 93
26 26 26 26 26 27 27 28 28 28 29 30 32 34 35 36 37 38 39 40 42 43 44 45 46 47 48 49 50 51 53 55 57 58 60 62 64 66 68 70 72 74 77 79 81 84 86 89 91 93 95 96
26 26 26 26 27 27 28 28 29 29 31 32 34 36 37 38 39 39 41 42 43 44 45 46 47 47 49 50 52 53 55 57 59 61 63 65 67 69 71 73 76 78 80 83 85 88 90 92 94 96 98 99
26 26 26 27 27 28 29 29 30 31 33 34 35 37 38 39 40 40 42 43 44 45 46 47 48 49 50 52 53 55 56 58 60 63 65 67 69 72 74 76 79 81 84 87 89 91 93 95 97 99 101 103
26 26 27 28 28 29 30 31 32 33 34 35 36 38 38 39 40 41 43 44 46 46 47 48 49 50 52 53 55 57 59 61 63 65 67 69 72 75 77 80 82 84 87 90 92 94 96 98 101 103 105 107
27 28 28 29 29 30 31 31 32 33 34 36 37 38 39 40 41 43 44 45 46 47 48 49 50 52 53 55 57 60 62 63 65 67 69 72 74 77 80 82 85 87 90 92 95 97 100 102 105 107 110 112
29 29 29 30 30 31 31 32 33 34 36 37 37 38 39 40 42 43 45 46 46 47 48 49 51 53 55 58 60 62 64 66 68 70 72 74 76 79 81 84 87 90 92 95 98 101 104 107 109 111 113 114
30 31 31 31 31 32 33 34 35 36 37 37 37 38 40 41 43 44 45 45 46 47 49 51 53 55 58 60 62 65 67 68 70 72 74 76 78 80 83 86 89 92 96 99 101 104 107 110 112 113 114 114
31 32 32 32 33 33 34 35 35 36 36 37 37 39 40 42 43 44 45 46 47 49 50 52 55 57 60 62 65 67 69 71 72 73 75 78 80 82 85 88 92 95 98 101 104 106 109 111 112 113 114 114
32 33 33 33 33 34 34 35 35 36 36 37 38 40 42 43 44 45 47 48 49 50 51 54 56 59 62 64 67 69 71 72 73 75 77 79 82 85 88 91 94 96 99 102 105 108 109 111 112 113 113 112
33 33 34 34 34 34 34 35 35 36 37 38 40 42 43 44 45 46 47 48 49 51 53 56 58 61 64 66 68 70 72 73 75 77 79 81 84 87 90 92 95 97 100 102 104 106 108 110 110 109 106 104
34 34 34 34 34 34 34 35 36 37 38 40 41 43 44 45 46 47 47 48 50 53 55 58 61 63 66 68 70 72 73 75 77 79 81 84 86 89 91 94 96 98 101 103 104 106 106 106 105 102 98 93
36 36 35 34 34 35 35 36 37 38 40 41 43 44 45 46 46 47 48 50 52 55 57 60 62 65 67 70 71 73 75 77 79 80 83 86 89 92 94 96 98 100 102 104 105 106 104 102 99 93 87 83
39 38 37 36 35 35 36 37 38 39 41 42 43 44 45 47 48 49 50 52 54 56 59 61 64 66 69 71 72 74 76 78 80 82 85 88 90 93 96 98 100 102 104 105 105 104 103 100 95 87 79 76
41 40 38 37 36 36 36 37 39 40 42 43 45 46 47 48 48 49 51 53 55 58 60 63 65 68 70 72 73 75 77 79 81 83 86 89 92 94 97 99 102 104 105 106 105 103 100 96 90 84 77 71
42 41 40 38 36 36 37 38 40 41 43 45 46 46 47 48 48 50 52 54 57 59 62 64 67 69 71 73 74 76 77 80 82 85 87 90 93 96 98 100 103 104 105 104 103 100 96 91 85 79 73 67
43 42 40 38 37 37 37 39 41 43 44 45 46 46 47 48 49 51 53 55 58 60 63 66 68 70 72 73 75 77 79 81 83 86 88 91 94 96 98 101 102 102 102 101 98 94 89 84 79 74 70 65
Wind_Direction
298 298 299 300 300 300 301 303 304 305 305 304 303 303 303 304 305 306 306 307 308 308 308 308 308 308 308 308 308 309 309 310 310 310 310 310 310 309 308 308 307 306 305 304 304 303 302 302 301 300 300 299
299 299 300 300 301 302 303 304 304 303 303 303 304 305 306 307 307 308 308 309 309 309 310 309 310 310 310 310 311 311 312 312 311 311 311 310 309 308 308 307 306 305 304 304 303 303 302 301 301 300 300 299
300 300 301 302 303 304 303 303 303 303 304 306 307 308 308 309 309 309 309 309 309 309 309 309 310 311 311 312 312 312 312 312 311 310 310 309 309 308 307 306 306 305 305 304 304 303 302 302 301 300 299 299
304 304 304 304 305 305 305 305 306 307 308 309 310 310 310 310 310 310 309 309 309 309 310 311 312 312 313 313 313 312 311 311 310 309 309 308 308 307 307 306 306 305 305 304 304 303 303 302 301 301 300 299
309 309 308 308 309 309 309 310 311 311 312 312 312 312 312 311 310 310 310 310 311 312 313 313 314 314 313 312 312 311 310 310 309 308 308 307 307 306 306 306 305 305 305 305 304 304 304 303 302 302 301 300
313 313 314 314 314 314 314 314 315 315 315 314 313 313 312 312 311 311 312 313 314 315 315 315 314 313 312 312 311 310 310 309 309 309 308 308 308 307 307 307 307 307 307 307 307 306 306 305 305 304 303 303
317 318 319 319 319 319 318 318 318 317 316 315 314 314 313 313 313 314 316 317 317 317 316 315 313 313 312 312 311 311 311 311 311 311 311 311 311 311 311 311 311 310 310 310 310 309 308 307 306 306 305 304
321 321 321 321 321 320 320 319 318 317 317 316 315 315 315 315 316 318 318 318 317 316 314 314 313 313 312 312 312 312 313 313 314 314 314 314 314 314 313 313 313 312 311 311 310 309 308 307 306 305 304 303
322 321 320 320 320 320 320 319 318 317 316 315 315 315 316 317 318 319 318 316 315 314 314 314 313 313 313 313 314 315 315 316 316 316 316 316 315 314 313 312 311 310 309 308 307 306 306 305 304 304 303 302
321 320 320 320 320 320 319 318 317 316 315 315 314 315 317 318 318 317 316 315 315 315 314 314 314 314 314 315 317 317 317 317 317 317 316 315 314 313 312 311 310 309 308 308 307 307 306 305 305 304 303 303
320 320 320 320 320 319 318 316 315 315 314 314 315 317 318 318 317 316 315 316 315 315 315 315 315 316 317 318 318 318 318 317 317 316 315 315 314 313 312 311 311 311 310 310 309 308 308 307 306 306 305 305
321 321 321 320 319 318 316 315 314 313 313 314 316 317 317 316 315 316 316 316 316 316 316 317 317 317 318 318 318 318 318 317 316 316 315 314 313 313 312 312 312 312 311 311 310 309 309 308 308 307 307 306
322 321 321 320 318 317 315 314 313 313 314 315 316 315 315 315 316 316 317 317 318 318 317 317 317 317 317 318 318 318 317 316 315 314 313 313 313 313 313 313 313 313 312 311 311 310 310 309 308 308 307 307
323 322 320 319 317 316 314 313 312 313 314 314 314 314 315 316 317 318 318 318 318 317 317 317 317 318 318 318 318 317 315 314 313 313 312 313 313 314 314 314 313 313 312 311 311 311 310 310 310 309 309 308
323 321 320 318 317 315 314 313 313 313 313 313 314 315 316 317 318 318 318 317 317 317 317 317 318 318 318 317 316 315 314 313 313 313 313 314 315 315 315 314 314 314 313 313 313 313 312 312 311 310 309 308
323 321 320 318 317 315 314 314 313 313 313 314 315 316 317 317 317 317 317 317 317 317 317 318 318 317 316 315 314 314 313 313 314 315 315 316 316 316 316 316 315 315 315 315 314 314 313 312 311 310 308 307
323 322 320 318 317 315 315 314 314 314 314 314 314 315 316 316 317 317 317 317 316 317 317 317 317 316 315 314 313 313 314 315 316 317 318 318 317 317 317 317 317 317 316 316 315 314 312 311 310 309 309 309
325 322 320 318 317 316 315 315 314 314 312 312 313 314 315 316 316 317 316 316 316 317 317 317 316 314 313 313 314 314 316 317 318 318 318 318 318 318 318 318 318 317 317 315 314 313 312 311 311 311 311 311
326 323 320 319 318 317 316 315 313 312 311 312 313 314 315 315 316 316 316 316 317 317 316 315 314 313 313 314 315 317 318 319 319 319 319 319 319 320 319 319 318 317 316 315 314 313 313 313 313 313 313 313
327 324 321 319 318 316 315 313 312 311 312 312 313 314 314 315 315 316 316 316 316 316 315 313 313 313 314 316 317 319 319 319 319 320 320 320 320 320 319 319 317 316 315 315 315 315 315 315 315 315 314 314
327 324 322 319 317 315 313 312 312 312 312 312 313 314 314 315 315 316 316 316 315 314 313 312 313 315 316 318 320 320 319 320 321 321 321 320 320 320 319 317 317 316 316 316 317 317 317 317 317 316 315 314
325 324 322 319 317 315 314 312 312 312 312 312 313 313 314 315 316 316 315 314 314 313 313 314 316 317 319 320 320 319 320 321 322 321 321 320 319 318 318 317 318 318 318 319 319 319 319 319 318 317 316 315
323 322 321 319 318 316 314 312 311 311 311 312 313 315 316 316 316 316 315 314 314 314 315 316 317 319 320 320 320 321 322 322 321 321 320 320 319 318 319 319 320 320 320 320 321 321 320 320 319 318 317 315
323 322 321 320 318 315 313 311 311 311 313 314 316 317 318 317 317 316 315 315 314 315 316 317 318 320 320 320 321 321 321 321 321 321 320 320 320 320 321 321 321 321 322 322 323 322 322 321 320 319 317 316
323 322 321 319 317 314 313 312 313 314 316 318 319 319 318 317 317 316 315 315 315 316 317 319 320 321 320 320 321 321 321 321 321 321 320 320 321 321 321 322 322 323 323 324 324 323 322 322 321 319 318 317
324 323 321 318 316 315 315 315 316 318 319 320 320 319 318 317 316 315 315 315 317 318 319 321 321 320 320 320 321 321 321 321 321 321 321 321 322 322 322 322 322 323 324 324 324 323 323 322 321 320 320 319
324 323 322 320 318 317 317 317 319 320 320 320 319 318 318 317 316 316 316 318 318 320 321 320 319 319 320 321 322 322 322 322 322 322 322 322 323 323 323 323 324 324 325 324 324 324 323 321 321 321 321 320
325 324 323 321 320 319 318 319 320 320 319 319 318 318 318 318 318 318 318 319 319 320 320 319 319 320 321 322 322 322 322 322 322 322 323 323 324 324 324 325 325 326 326 325 325 324 323 321 321 322 322 321
324 324 322 321 320 319 319 319 319 319 319 319 320 320 319 319 318 318 318 319 319 319 318 318 319 321 322 322 322 322 322 323 323 323 324 324 324 324 325 326 327 327 327 326 325 324 323 323 323 324 324 325
324 323 322 320 319 319 318 318 318 319 320 321 321 320 319 318 318 318 318 319 319 318 318 319 320 321 322 322 322 322 323 323 323 324 325 325 325 326 327 328 328 328 327 327 326 326 325 326 327 327 328 328
323 322 320 319 318 318 318 318 319 321 321 321 320 319 319 318 318 318 318 319 318 318 319 320 321 322 322 322 322 323 324 324 324 325 325 326 327 328 329 329 329 329 328 328 328 328 329 330 331 331 331 331